This is the latest recevied weather packets stored in our database for station/object K1WJY. If no packets are shown the sender has not sent any weather packets the latest 10 day(s).
| Time | Temp. | Humidity | Pressure | Rain* | Wind** | Luminosity | Snow |
|---|---|---|---|---|---|---|---|
| 1777678220 | 11.67° C | 63% | 1010.2 hPa | 0 mm | - | 5 W/m² | - |
| 1777677916 | 12.22° C | 62% | 1009.9 hPa | 0 mm | - | 9 W/m² | - |
| 1777677614 | 12.22° C | 60% | 1010 hPa | 0 mm | - | 11 W/m² | - |
| 1777677312 | 12.78° C | 59% | 1009.9 hPa | 0 mm | - | 13 W/m² | - |
| 1777677010 | 13.33° C | 57% | 1010 hPa | 0 mm | - | 18 W/m² | - |
| 1777676709 | 13.33° C | 57% | 1009.7 hPa | 0 mm | - | 29 W/m² | - |
| 1777676406 | 13.33° C | 58% | 1009.7 hPa | 0 mm | - | 31 W/m² | - |
| 1777676103 | 13.33° C | 58% | 1009.6 hPa | 0 mm | - | 34 W/m² | - |
| 1777675799 | 13.89° C | 57% | 1009.4 hPa | 0 mm | - | 38 W/m² | - |
| 1777675497 | 13.89° C | 58% | 1009.5 hPa | 0 mm | - | 42 W/m² | - |
| 1777675194 | 13.89° C | 56% | 1009.3 hPa | 0 mm | - | 42 W/m² | - |
| 1777674890 | 13.89° C | 57% | 1009.3 hPa | 0 mm | - | 42 W/m² | - |
| 1777674586 | 13.89° C | 55% | 1009.3 hPa | 0 mm | - | 47 W/m² | - |
| 1777674284 | 13.89° C | 56% | 1009.3 hPa | 0 mm | - | 54 W/m² | - |
| 1777673979 | 13.89° C | 55% | 1009 hPa | 0 mm | - | 62 W/m² | - |
| 1777673676 | 13.89° C | 56% | 1009.1 hPa | 0 mm | - | 70 W/m² | - |
| 1777673374 | 14.44° C | 54% | 1008.8 hPa | 0 mm | - | 76 W/m² | - |
| 1777673072 | 14.44° C | 57% | 1008.9 hPa | 0 mm | - | 81 W/m² | - |
| 1777672767 | 14.44° C | 57% | 1009 hPa | 0 mm | - | 82 W/m² | - |
| 1777672464 | 14.44° C | 55% | 1008.8 hPa | 0 mm | - | 82 W/m² | - |
| 1777672160 | 14.44° C | 55% | 1008.7 hPa | 0 mm | - | 96 W/m² | - |
| 1777671855 | 15° C | 53% | 1009 hPa | 0 mm | - | 102 W/m² | - |
| 1777671551 | 14.44° C | 56% | 1008.8 hPa | 0 mm | - | 187 W/m² | - |
| 1777671248 | 14.44° C | 55% | 1008.6 hPa | 0 mm | - | 94 W/m² | - |
| 1777670943 | 14.44° C | 55% | 1008.6 hPa | 0 mm | - | 104 W/m² | - |
* Rain latest hour (hover to see other rain measurements)
** Current wind speed in m/s (hover to see current wind gust speed)